{"data":{"norad_id":53448,"epoch":"2026-05-25T04:52:13.483776Z","epoch_age_seconds":54144,"freshness":"FRESH","line1":"1 53448U 22098E   26145.20293384  .00069275  00000+0  68009-3 0  9998","line2":"2 53448  97.5546 274.1436 0002895 109.1452 251.0121 15.65834907211098","mean_motion":15.65834907,"eccentricity":0.0002895,"inclination_deg":97.5546,"raan_deg":274.1436,"arg_perigee_deg":109.1452,"mean_anomaly_deg":251.0121,"bstar":0.00068009,"rev_number":21109,"period_min":91.963718113739,"perigee_km":368.88481762043,"apogee_km":372.79247451951,"semimajor_km":6748.97564607,"source":"CELESTRAK","updated_at":"2026-05-25T13:37:58.191943Z"}}